Simultaneous Nadir Overpasses (SNOs) Predictions

Prediction of SNOs between GOES-17 and AQUA Satellite Orbit:

Table of predicted SNOs for the next 14.0 days since TLE Epoch: 10/15/2022
Index Date Time (GOES-17) GOES-17 Lat,Lon AQUA Lat,Lon Distance(km) Time Diff (sec)
1 10/15/2022 11:02:37 0.05,-137.34 0.74,-140.58 368.92 80
2 10/17/2022 10:49:47 0.05,-137.33 0.08,-137.46 14.70 80
3 10/19/2022 10:39:37 0.05,-137.31 -0.61,-134.34 339.26 80
4 10/19/2022 22:58:11 -0.04,-137.31 -0.48,-139.48 246.35 80
5 10/21/2022 22:48:00 -0.04,-137.29 0.19,-136.36 107.55 80
6 10/22/2022 11:06:25 0.03,-137.29 0.91,-141.46 474.39 80
7 10/23/2022 22:35:08 -0.04,-137.27 0.84,-133.22 461.17 80
8 10/24/2022 10:53:33 0.03,-137.27 0.26,-138.33 120.85 80
9 10/26/2022 10:43:21 0.04,-137.23 -0.42,-135.20 232.12 80
10 10/26/2022 23:01:53 -0.03,-137.22 -0.70,-140.34 354.02 80
11 10/28/2022 22:49:01 -0.03,-137.18 -0.04,-137.20 2.21 80
